Year,Month,Day,Hour,Minute,Value (Times are PST for temperature in C)
2020,09,30,12,10,16.80
2020,09,30,12,11,16.80
2020,09,30,12,12,16.70
2020,09,30,12,13,16.70
2020,09,30,12,14,16.60
2020,09,30,12,15,16.70
2020,09,30,12,16,16.70
2020,09,30,12,17,16.60
2020,09,30,12,18,16.50
2020,09,30,12,19,16.40
2020,09,30,12,20,16.40
2020,09,30,12,21,16.30
2020,09,30,12,22,16.30
2020,09,30,12,23,16.30
2020,09,30,12,24,16.30
2020,09,30,12,25,16.40
2020,09,30,12,26,16.50
2020,09,30,12,27,16.60
2020,09,30,12,28,16.70
2020,09,30,12,29,16.80
2020,09,30,12,30,16.80
2020,09,30,12,31,16.90
2020,09,30,12,32,16.90
2020,09,30,12,33,16.90
2020,09,30,12,34,16.80
2020,09,30,12,35,16.70
2020,09,30,12,36,16.70
2020,09,30,12,37,16.70
2020,09,30,12,38,16.70
2020,09,30,12,39,16.70
2020,09,30,12,40,16.70
2020,09,30,12,41,16.70
2020,09,30,12,42,16.80
2020,09,30,12,43,16.80
2020,09,30,12,44,16.80
2020,09,30,12,45,17.00
2020,09,30,12,46,17.10
2020,09,30,12,47,17.20
2020,09,30,12,48,17.30
2020,09,30,12,49,17.40
2020,09,30,12,50,17.50
2020,09,30,12,51,17.60
2020,09,30,12,52,17.70
2020,09,30,12,53,17.80
2020,09,30,12,54,17.90
2020,09,30,12,55,17.90
2020,09,30,12,56,17.90
2020,09,30,12,57,17.90
2020,09,30,12,58,17.90
2020,09,30,12,59,17.80
2020,09,30,13,00,17.70
2020,09,30,13,01,17.70
2020,09,30,13,02,17.60
2020,09,30,13,03,17.60
2020,09,30,13,04,17.60
2020,09,30,13,05,17.60
2020,09,30,13,06,17.70
2020,09,30,13,07,17.70
2020,09,30,13,08,17.70
2020,09,30,13,09,17.80
2020,09,30,13,10,17.90
2020,09,30,13,11,18.00
2020,09,30,13,12,18.10
2020,09,30,13,13,18.20
2020,09,30,13,14,18.30
2020,09,30,13,15,18.30
2020,09,30,13,16,18.50
2020,09,30,13,17,18.60
2020,09,30,13,18,18.70
2020,09,30,13,19,18.70
2020,09,30,13,20,18.80
2020,09,30,13,21,18.90
2020,09,30,13,22,18.90
2020,09,30,13,23,19.00
2020,09,30,13,24,19.00
2020,09,30,13,25,19.10
2020,09,30,13,26,19.20
2020,09,30,13,27,19.30
2020,09,30,13,28,19.30
2020,09,30,13,29,19.50
2020,09,30,13,30,19.60
2020,09,30,13,31,19.70
2020,09,30,13,32,19.80
2020,09,30,13,33,19.90
2020,09,30,13,34,20.00
2020,09,30,13,35,20.10
2020,09,30,13,36,20.10
2020,09,30,13,37,20.20
2020,09,30,13,38,20.30
2020,09,30,13,39,20.30
2020,09,30,13,40,20.30
2020,09,30,13,41,20.30
2020,09,30,13,42,20.20
2020,09,30,13,43,20.20
2020,09,30,13,44,20.20
2020,09,30,13,45,20.10
2020,09,30,13,46,20.00
2020,09,30,13,47,20.00
2020,09,30,13,48,20.00
2020,09,30,13,49,19.90
2020,09,30,13,50,19.90
2020,09,30,13,51,19.90
2020,09,30,13,52,19.80
2020,09,30,13,53,19.80
2020,09,30,13,54,19.80
2020,09,30,13,55,19.80
2020,09,30,13,56,19.80
2020,09,30,13,57,19.80
2020,09,30,13,58,19.90
2020,09,30,13,59,19.90
2020,09,30,14,00,19.90
2020,09,30,14,01,19.90
2020,09,30,14,02,20.00
2020,09,30,14,03,20.00
2020,09,30,14,04,20.10
2020,09,30,14,05,20.20
2020,09,30,14,06,20.20
2020,09,30,14,07,20.30
2020,09,30,14,08,20.40
2020,09,30,14,09,20.50
2020,09,30,14,10,20.60
2020,09,30,14,11,20.50
2020,09,30,14,12,20.50
2020,09,30,14,13,20.40
2020,09,30,14,14,20.30
2020,09,30,14,15,20.30
2020,09,30,14,16,20.30
2020,09,30,14,17,20.30
2020,09,30,14,18,20.30
2020,09,30,14,19,20.30
2020,09,30,14,20,20.30
2020,09,30,14,21,20.30
2020,09,30,14,22,20.30
2020,09,30,14,23,20.30
2020,09,30,14,24,20.40
2020,09,30,14,25,20.40
2020,09,30,14,26,20.50
2020,09,30,14,27,20.60
2020,09,30,14,28,20.60
2020,09,30,14,29,20.60
2020,09,30,14,30,20.60
2020,09,30,14,31,20.70
2020,09,30,14,32,20.70
2020,09,30,14,33,20.70
2020,09,30,14,34,20.80
2020,09,30,14,35,20.80
2020,09,30,14,36,20.80
2020,09,30,14,37,20.80
2020,09,30,14,38,20.80
2020,09,30,14,39,20.80
2020,09,30,14,40,20.80
2020,09,30,14,41,20.80
2020,09,30,14,42,20.70
2020,09,30,14,43,20.70
2020,09,30,14,44,20.60
2020,09,30,14,45,20.40
2020,09,30,14,46,20.30
2020,09,30,14,47,20.10
2020,09,30,14,48,20.00
2020,09,30,14,49,19.90
2020,09,30,14,50,19.80
2020,09,30,14,51,19.80
2020,09,30,14,52,19.80
2020,09,30,14,53,19.80
2020,09,30,14,54,19.80
2020,09,30,14,55,19.80
2020,09,30,14,56,19.80
2020,09,30,14,57,19.80
2020,09,30,14,58,19.80
2020,09,30,14,59,19.70
2020,09,30,15,00,19.60
2020,09,30,15,01,19.40
2020,09,30,15,02,19.40
2020,09,30,15,03,19.40
2020,09,30,15,04,19.30
2020,09,30,15,05,19.30
2020,09,30,15,06,19.30
2020,09,30,15,07,19.30
2020,09,30,15,08,19.30
2020,09,30,15,09,19.40
2020,09,30,15,10,19.50
2020,09,30,15,11,19.50
2020,09,30,15,12,19.60
2020,09,30,15,13,19.70
2020,09,30,15,14,19.70
2020,09,30,15,15,19.80
2020,09,30,15,16,19.80
2020,09,30,15,17,19.80
2020,09,30,15,18,19.90
2020,09,30,15,19,19.80
2020,09,30,15,20,19.80
2020,09,30,15,21,19.70
2020,09,30,15,22,19.70
2020,09,30,15,23,19.70
2020,09,30,15,24,19.70
2020,09,30,15,25,19.70
2020,09,30,15,26,19.70
2020,09,30,15,27,19.70
2020,09,30,15,28,19.80
2020,09,30,15,29,19.80
2020,09,30,15,30,19.90
2020,09,30,15,31,19.90
2020,09,30,15,32,20.00
2020,09,30,15,33,20.00
2020,09,30,15,34,20.00
2020,09,30,15,35,19.90
2020,09,30,15,36,20.00
2020,09,30,15,37,20.10
2020,09,30,15,38,20.20
2020,09,30,15,39,20.20
2020,09,30,15,40,20.30
2020,09,30,15,41,20.30
2020,09,30,15,42,20.30
2020,09,30,15,43,20.40
2020,09,30,15,44,20.40
2020,09,30,15,45,20.40
2020,09,30,15,46,20.50
2020,09,30,15,47,20.50
2020,09,30,15,48,20.50
2020,09,30,15,49,20.50
2020,09,30,15,50,20.50
2020,09,30,15,51,20.60
2020,09,30,15,52,20.60
2020,09,30,15,53,20.60
2020,09,30,15,54,20.60
2020,09,30,15,55,20.60
2020,09,30,15,56,20.50
2020,09,30,15,57,20.50
2020,09,30,15,58,20.40
2020,09,30,15,59,20.40
2020,09,30,16,00,20.40
2020,09,30,16,01,20.30
2020,09,30,16,02,20.30
2020,09,30,16,03,20.30
2020,09,30,16,04,20.30
2020,09,30,16,05,20.20
2020,09,30,16,06,20.30
2020,09,30,16,07,20.30
2020,09,30,16,08,20.40
2020,09,30,16,09,20.50
2020,09,30,16,10,20.50
2020,09,30,16,11,20.60
2020,09,30,16,12,20.60
2020,09,30,16,13,20.70
2020,09,30,16,14,20.70
2020,09,30,16,15,20.70
2020,09,30,16,16,20.70
2020,09,30,16,17,20.70
2020,09,30,16,18,20.70
2020,09,30,16,19,20.70
2020,09,30,16,20,20.60
2020,09,30,16,21,20.50
2020,09,30,16,22,20.50
2020,09,30,16,23,20.40
2020,09,30,16,24,20.40
2020,09,30,16,25,20.30
2020,09,30,16,26,20.20
2020,09,30,16,27,20.20
2020,09,30,16,28,20.20
2020,09,30,16,29,20.20
2020,09,30,16,30,20.20
2020,09,30,16,31,20.20
2020,09,30,16,32,20.20
2020,09,30,16,33,20.20
2020,09,30,16,34,20.30
2020,09,30,16,35,20.30
2020,09,30,16,36,20.30
2020,09,30,16,37,20.30
2020,09,30,16,38,20.30
2020,09,30,16,39,20.30
2020,09,30,16,40,20.40
2020,09,30,16,41,20.40
2020,09,30,16,42,20.40
2020,09,30,16,43,20.40
2020,09,30,16,44,20.50
2020,09,30,16,45,20.40
2020,09,30,16,46,20.40
2020,09,30,16,47,20.40
2020,09,30,16,48,20.30
2020,09,30,16,49,20.20
2020,09,30,16,50,20.20
2020,09,30,16,51,20.20
2020,09,30,16,52,20.10
2020,09,30,16,53,20.10
2020,09,30,16,54,20.00
2020,09,30,16,55,20.00
2020,09,30,16,56,19.90
2020,09,30,16,57,19.90
2020,09,30,16,58,19.90
2020,09,30,16,59,19.90
2020,09,30,17,00,19.90
2020,09,30,17,01,19.90
2020,09,30,17,02,19.90
2020,09,30,17,03,19.90
2020,09,30,17,04,20.00
2020,09,30,17,05,20.00
2020,09,30,17,06,20.00
2020,09,30,17,07,20.00
2020,09,30,17,08,20.00
2020,09,30,17,09,19.90
2020,09,30,17,10,19.80
2020,09,30,17,11,19.70
2020,09,30,17,12,19.70
2020,09,30,17,13,19.60
2020,09,30,17,14,19.60
2020,09,30,17,15,19.60
2020,09,30,17,16,19.70
2020,09,30,17,17,19.70
2020,09,30,17,18,19.70
2020,09,30,17,19,19.70
2020,09,30,17,20,19.70
2020,09,30,17,21,19.70
2020,09,30,17,22,19.80
2020,09,30,17,23,19.80
2020,09,30,17,24,19.70
2020,09,30,17,25,19.80
2020,09,30,17,26,19.80
2020,09,30,17,27,19.80
2020,09,30,17,28,19.70
2020,09,30,17,29,19.60
2020,09,30,17,30,19.50
2020,09,30,17,31,19.40
2020,09,30,17,32,19.30
2020,09,30,17,33,19.20
2020,09,30,17,34,19.10
2020,09,30,17,35,19.00
2020,09,30,17,36,18.90
2020,09,30,17,37,18.80
2020,09,30,17,38,18.80
2020,09,30,17,39,18.70
2020,09,30,17,40,18.70
2020,09,30,17,41,18.70
2020,09,30,17,42,18.70
2020,09,30,17,43,18.60
2020,09,30,17,44,18.60
2020,09,30,17,45,18.60
2020,09,30,17,46,18.50
2020,09,30,17,47,18.50
2020,09,30,17,48,18.40
2020,09,30,17,49,18.30
2020,09,30,17,50,18.20
2020,09,30,17,51,18.10
2020,09,30,17,52,18.10
2020,09,30,17,53,18.00
2020,09,30,17,54,17.90
2020,09,30,17,55,17.90
2020,09,30,17,56,17.90
2020,09,30,17,57,17.80
2020,09,30,17,58,17.70
2020,09,30,17,59,17.70
2020,09,30,18,00,17.60
2020,09,30,18,01,17.50
2020,09,30,18,02,17.50
2020,09,30,18,03,17.40
2020,09,30,18,04,17.30
2020,09,30,18,05,17.30
2020,09,30,18,06,17.20
2020,09,30,18,07,17.10
2020,09,30,18,08,17.10
2020,09,30,18,09,17.00
2020,09,30,18,10,17.00
2020,09,30,18,11,16.90
2020,09,30,18,12,16.80
2020,09,30,18,13,16.80
2020,09,30,18,14,16.70
2020,09,30,18,15,16.70
2020,09,30,18,16,16.60
2020,09,30,18,17,16.50
2020,09,30,18,18,16.50
2020,09,30,18,19,16.40
2020,09,30,18,20,16.30
2020,09,30,18,21,16.30
2020,09,30,18,22,16.20
2020,09,30,18,23,16.20
2020,09,30,18,24,16.20
2020,09,30,18,25,16.10
2020,09,30,18,26,16.10
2020,09,30,18,27,16.00
2020,09,30,18,28,16.00
2020,09,30,18,29,15.90
2020,09,30,18,30,15.90
2020,09,30,18,31,15.80
2020,09,30,18,32,15.80
2020,09,30,18,33,15.80
2020,09,30,18,34,15.80
2020,09,30,18,35,15.80
2020,09,30,18,36,15.80
2020,09,30,18,37,15.70
2020,09,30,18,38,15.70
2020,09,30,18,39,15.70
2020,09,30,18,40,15.70
2020,09,30,18,41,15.70
2020,09,30,18,42,15.70
2020,09,30,18,43,15.70
2020,09,30,18,44,15.70
2020,09,30,18,45,15.70
2020,09,30,18,46,15.70
2020,09,30,18,47,15.70
2020,09,30,18,48,15.70
2020,09,30,18,49,15.70
